DLH222 OBBI-LOWW

Flight info

Callsign DLH222
Flight time N/A
Altitude 38000
Route BHR345/30R BHR M444 DAVUS L602 RALKA G795 TASMI/N0422F220 L602 ALPET/N0476F380 L718 EMIDO/N0475F400 L718 KABAN UL718 INB UL746 ODERO T86 MATEL T746 ARGES DCT ENIMA DCT OLMIP DCT ERGUZ DCT NATEX NATEX2W
Aircraft A333/H-SDE3GHIJ2J3J5M1RVWXY/LB2D1

Departure

Time N/A
Airport Bahrain International Airport (OBBI)

Arrival

Time 2026-05-06 15:02
Airport Vienna International Airport (LOWW)
Time Latitude Longitude Altitude Speed Heading
2026-05-06 13:16 42.52596 30.73483 38111 ft 453 kts 286°
2026-05-06 13:16 42.54105 30.65192 38111 ft 453 kts 286°
2026-05-06 13:17 42.55607 30.56898 38117 ft 453 kts 286°
2026-05-06 13:17 42.57104 30.48598 38109 ft 453 kts 286°
2026-05-06 13:18 42.58584 30.40351 38123 ft 453 kts 286°
2026-05-06 13:18 42.60069 30.32042 38118 ft 453 kts 286°
2026-05-06 13:19 42.61922 30.23907 38103 ft 450 kts 294°
2026-05-06 13:19 42.64299 30.15983 38113 ft 450 kts 295°
2026-05-06 13:20 42.66730 30.08215 38112 ft 450 kts 295°
2026-05-06 13:20 42.69179 30.00402 38113 ft 450 kts 295°
2026-05-06 13:21 42.71614 29.92569 38113 ft 450 kts 295°
2026-05-06 13:21 42.74036 29.84730 38112 ft 450 kts 295°
2026-05-06 13:22 42.76452 29.76883 38116 ft 449 kts 295°
2026-05-06 13:22 42.78861 29.69033 38112 ft 449 kts 295°
2026-05-06 13:23 42.81266 29.61177 38116 ft 450 kts 295°
2026-05-06 13:23 42.83666 29.53311 38113 ft 450 kts 294°
2026-05-06 13:24 42.86062 29.45436 38115 ft 450 kts 294°
2026-05-06 13:24 42.88452 29.37556 38112 ft 450 kts 294°
2026-05-06 13:25 42.90837 29.29671 38114 ft 450 kts 294°
2026-05-06 13:25 42.93216 29.21778 38116 ft 450 kts 294°
2026-05-06 13:26 42.95591 29.13876 38115 ft 450 kts 294°
2026-05-06 13:26 42.97960 29.05972 38113 ft 450 kts 294°
2026-05-06 13:27 43.00323 28.98059 38105 ft 450 kts 294°
2026-05-06 13:27 43.02662 28.90206 38112 ft 449 kts 294°
2026-05-06 13:28 43.05029 28.82309 38110 ft 448 kts 297°
2026-05-06 13:28 43.08199 28.75028 38114 ft 445 kts 306°
2026-05-06 13:29 43.11803 28.68138 38110 ft 445 kts 308°
2026-05-06 13:29 43.15475 28.61336 38110 ft 444 kts 308°
2026-05-06 13:30 43.19140 28.54531 38110 ft 444 kts 308°
2026-05-06 13:30 43.22788 28.47707 38111 ft 444 kts 308°
2026-05-06 13:31 43.26423 28.40871 38108 ft 443 kts 308°
2026-05-06 13:31 43.30046 28.34040 38105 ft 442 kts 307°
2026-05-06 13:32 43.33664 28.27204 38106 ft 443 kts 307°
2026-05-06 13:32 43.37288 28.20343 38094 ft 444 kts 307°
2026-05-06 13:33 43.40913 28.13462 38081 ft 444 kts 307°
2026-05-06 13:33 43.44534 28.06573 38079 ft 444 kts 307°
2026-05-06 13:34 43.48124 27.99728 38071 ft 444 kts 307°
2026-05-06 13:34 43.51735 27.92827 38053 ft 444 kts 307°
2026-05-06 13:35 43.55337 27.85927 38067 ft 443 kts 307°
2026-05-06 13:35 43.58926 27.79034 38059 ft 442 kts 307°
2026-05-06 13:36 43.62510 27.72137 38055 ft 442 kts 307°
2026-05-06 13:36 43.66089 27.65232 38044 ft 442 kts 307°
2026-05-06 13:37 43.69656 27.58334 38041 ft 440 kts 307°
2026-05-06 13:37 43.73210 27.51444 38041 ft 440 kts 307°
2026-05-06 13:38 43.76759 27.44548 38041 ft 440 kts 307°
2026-05-06 13:38 43.80309 27.37636 38030 ft 441 kts 307°
2026-05-06 13:39 43.83255 27.31885 38026 ft 440 kts 307°
2026-05-06 13:39 43.86789 27.24973 38031 ft 439 kts 307°
2026-05-06 13:40 43.90912 27.16887 38024 ft 440 kts 307°
2026-05-06 13:40 43.93843 27.11126 38010 ft 439 kts 307°
2026-05-06 13:41 43.97357 27.04203 38017 ft 438 kts 306°
2026-05-06 13:41 44.00862 26.97283 38019 ft 438 kts 306°
2026-05-06 13:42 44.04360 26.90359 38016 ft 438 kts 306°
2026-05-06 13:42 44.07857 26.83424 38001 ft 438 kts 307°
2026-05-06 13:43 44.11432 26.76598 38015 ft 436 kts 308°
2026-05-06 13:43 44.15059 26.69846 38012 ft 435 kts 308°
2026-05-06 13:44 44.18684 26.63087 38014 ft 436 kts 308°
2026-05-06 13:44 44.22311 26.56278 38014 ft 438 kts 308°
2026-05-06 13:45 44.25935 26.49443 38007 ft 438 kts 307°
2026-05-06 13:45 44.31338 26.39222 38002 ft 438 kts 307°
2026-05-06 13:46 44.34951 26.32366 38008 ft 438 kts 307°
2026-05-06 13:46 44.38548 26.25524 38000 ft 435 kts 307°
2026-05-06 13:47 44.42113 26.18729 38032 ft 433 kts 307°
2026-05-06 13:47 44.45668 26.11937 38015 ft 433 kts 307°
2026-05-06 13:48 44.49221 26.05134 38033 ft 433 kts 307°
2026-05-06 13:48 44.52765 25.98331 38020 ft 431 kts 307°
2026-05-06 13:49 44.56288 25.91551 38013 ft 430 kts 307°
2026-05-06 13:49 44.59815 25.84748 38009 ft 432 kts 307°
2026-05-06 13:50 44.63348 25.77920 38007 ft 433 kts 307°
2026-05-06 13:50 44.66876 25.71083 38348 ft 431 kts 307°
2026-05-06 13:51 44.68635 25.67669 38568 ft 431 kts 307°
2026-05-06 13:51 44.70390 25.64257 38726 ft 431 kts 307°
2026-05-06 13:51 44.72145 25.60841 38871 ft 431 kts 307°
2026-05-06 13:51 44.73903 25.57417 38985 ft 432 kts 307°
2026-05-06 13:52 44.75662 25.53986 39110 ft 433 kts 307°
2026-05-06 13:52 44.77421 25.50551 39237 ft 433 kts 307°
2026-05-06 13:52 44.79181 25.47109 39353 ft 433 kts 306°
2026-05-06 13:52 44.80941 25.43665 39539 ft 432 kts 306°
2026-05-06 13:53 44.82695 25.40226 39671 ft 433 kts 306°
2026-05-06 13:53 44.84451 25.36781 39779 ft 433 kts 306°
2026-05-06 13:53 44.86184 25.33377 39887 ft 434 kts 306°
2026-05-06 13:53 44.87942 25.29919 39981 ft 435 kts 306°
2026-05-06 13:54 44.91457 25.22992 39997 ft 433 kts 306°
2026-05-06 13:54 44.94959 25.16076 39995 ft 433 kts 306°
2026-05-06 13:55 44.98452 25.09158 40001 ft 433 kts 306°
2026-05-06 13:55 45.01944 25.02228 39996 ft 433 kts 306°
2026-05-06 13:56 45.05432 24.95289 39992 ft 433 kts 306°
2026-05-06 13:56 45.08738 24.88180 39993 ft 433 kts 301°
2026-05-06 13:57 45.11747 24.80798 39993 ft 433 kts 300°
2026-05-06 13:57 45.14696 24.73363 39996 ft 433 kts 300°
2026-05-06 13:58 45.17600 24.66001 39993 ft 433 kts 300°
2026-05-06 13:58 45.20539 24.58550 39983 ft 433 kts 300°
2026-05-06 13:59 45.23475 24.51096 39988 ft 433 kts 299°
2026-05-06 13:59 45.26408 24.43637 39986 ft 433 kts 299°
2026-05-06 14:00 45.29337 24.36165 39987 ft 433 kts 299°
2026-05-06 14:00 45.32261 24.28685 39988 ft 433 kts 299°
2026-05-06 14:01 45.35181 24.21195 39982 ft 433 kts 299°
2026-05-06 14:01 45.38100 24.13691 39982 ft 434 kts 299°
2026-05-06 14:02 45.41013 24.06178 39988 ft 434 kts 299°
2026-05-06 14:02 45.43922 23.98653 39993 ft 434 kts 299°
2026-05-06 14:03 45.46805 23.91178 39992 ft 433 kts 298°
2026-05-06 14:03 45.49702 23.83645 39991 ft 433 kts 298°
2026-05-06 14:04 45.52594 23.76106 39993 ft 433 kts 298°
2026-05-06 14:04 45.55480 23.68560 39985 ft 433 kts 298°
2026-05-06 14:05 45.58361 23.61010 39983 ft 433 kts 298°
2026-05-06 14:05 45.61236 23.53452 39984 ft 433 kts 298°
2026-05-06 14:06 45.64106 23.45885 39969 ft 433 kts 298°
2026-05-06 14:06 45.66969 23.38314 39971 ft 433 kts 298°
2026-05-06 14:07 45.69828 23.30737 39958 ft 433 kts 298°
2026-05-06 14:07 45.72675 23.23169 39954 ft 431 kts 298°
2026-05-06 14:08 45.75512 23.15610 39948 ft 431 kts 298°
2026-05-06 14:08 45.78343 23.08042 39950 ft 431 kts 298°
2026-05-06 14:09 45.81159 23.00495 39947 ft 431 kts 297°
2026-05-06 14:09 45.83952 22.92989 39949 ft 429 kts 297°
2026-05-06 14:10 45.86752 22.85443 39949 ft 428 kts 297°
2026-05-06 14:10 45.89547 22.77889 39950 ft 428 kts 297°
2026-05-06 14:11 45.92338 22.70327 39952 ft 429 kts 297°
2026-05-06 14:11 45.95123 22.62757 39957 ft 428 kts 297°
2026-05-06 14:12 45.97896 22.55197 39959 ft 427 kts 296°
2026-05-06 14:12 46.00659 22.47645 39960 ft 427 kts 296°
2026-05-06 14:13 46.03420 22.40077 39958 ft 427 kts 296°
2026-05-06 14:13 46.06282 22.32587 39961 ft 427 kts 298°
2026-05-06 14:14 46.09307 22.25243 39958 ft 426 kts 299°
2026-05-06 14:14 46.12325 22.17973 39958 ft 426 kts 298°
2026-05-06 14:15 46.15341 22.10631 39954 ft 425 kts 298°
2026-05-06 14:15 46.18340 22.03270 39960 ft 425 kts 298°
2026-05-06 14:16 46.21324 21.95917 39956 ft 424 kts 298°
2026-05-06 14:16 46.24295 21.88575 39954 ft 423 kts 298°
2026-05-06 14:17 46.27261 21.81227 39950 ft 423 kts 298°
2026-05-06 14:17 46.30222 21.73875 39950 ft 423 kts 298°
2026-05-06 14:18 46.33177 21.66519 39950 ft 422 kts 297°
2026-05-06 14:18 46.36120 21.59172 39951 ft 421 kts 297°
2026-05-06 14:19 46.39056 21.51823 39950 ft 422 kts 297°
2026-05-06 14:19 46.41992 21.44453 39942 ft 422 kts 297°
2026-05-06 14:20 46.44924 21.37074 39946 ft 422 kts 297°
2026-05-06 14:20 46.47851 21.29688 39941 ft 422 kts 297°
2026-05-06 14:21 46.50774 21.22293 39936 ft 422 kts 297°
2026-05-06 14:21 46.53692 21.14889 39936 ft 422 kts 296°
2026-05-06 14:22 46.56606 21.07477 39933 ft 422 kts 296°
2026-05-06 14:22 46.59516 21.00053 39934 ft 423 kts 296°
2026-05-06 14:23 46.62426 20.92609 39927 ft 424 kts 296°
2026-05-06 14:23 46.65332 20.85154 39925 ft 423 kts 296°
2026-05-06 14:24 46.68216 20.77738 39924 ft 424 kts 296°
2026-05-06 14:24 46.71113 20.70267 39927 ft 424 kts 296°
2026-05-06 14:25 46.74012 20.62770 39926 ft 425 kts 296°
2026-05-06 14:25 46.76912 20.55249 39924 ft 426 kts 296°
2026-05-06 14:26 46.79809 20.47717 39925 ft 425 kts 296°
2026-05-06 14:26 46.82700 20.40177 39919 ft 425 kts 296°
2026-05-06 14:27 46.85583 20.32639 39914 ft 425 kts 296°
2026-05-06 14:27 46.88461 20.25090 39913 ft 425 kts 296°
2026-05-06 14:28 46.90851 20.18806 39913 ft 425 kts 296°
2026-05-06 14:28 46.93721 20.11243 39910 ft 425 kts 296°
2026-05-06 14:29 46.96585 20.03672 39914 ft 425 kts 296°
2026-05-06 14:29 46.99449 19.96079 39910 ft 427 kts 295°
2026-05-06 14:30 47.02317 19.88456 39910 ft 427 kts 295°
2026-05-06 14:30 47.05102 19.80959 39908 ft 426 kts 293°
2026-05-06 14:31 47.07620 19.73106 39908 ft 425 kts 291°
2026-05-06 14:31 47.10069 19.65258 39908 ft 426 kts 291°
2026-05-06 14:32 47.12544 19.57331 39892 ft 428 kts 291°
2026-05-06 14:32 47.15020 19.49391 39906 ft 428 kts 291°
2026-05-06 14:33 47.16220 19.45534 39746 ft 429 kts 291°
2026-05-06 14:33 47.17463 19.41532 39135 ft 432 kts 291°
2026-05-06 14:33 47.18714 19.37499 38547 ft 434 kts 291°
2026-05-06 14:33 47.19964 19.33464 37972 ft 433 kts 291°
2026-05-06 14:34 47.21201 19.29467 37470 ft 430 kts 291°
2026-05-06 14:34 47.22435 19.25475 36977 ft 427 kts 291°
2026-05-06 14:34 47.23604 19.21683 36484 ft 425 kts 291°
2026-05-06 14:34 47.24805 19.17779 35968 ft 424 kts 291°
2026-05-06 14:35 47.26020 19.13827 35416 ft 424 kts 291°
2026-05-06 14:35 47.27237 19.09859 34828 ft 425 kts 291°
2026-05-06 14:35 47.28449 19.05901 34229 ft 426 kts 291°
2026-05-06 14:35 47.29670 19.01911 33582 ft 428 kts 291°
2026-05-06 14:36 47.30891 18.97910 32925 ft 428 kts 291°
2026-05-06 14:36 47.32104 18.93932 32298 ft 428 kts 291°
2026-05-06 14:36 47.33311 18.89967 31651 ft 428 kts 291°
2026-05-06 14:36 47.34529 18.85961 30959 ft 429 kts 291°
2026-05-06 14:37 47.35746 18.81952 30292 ft 430 kts 291°
2026-05-06 14:37 47.36921 18.78072 29597 ft 431 kts 291°
2026-05-06 14:37 47.38073 18.74268 29162 ft 426 kts 291°
2026-05-06 14:37 47.39262 18.70335 28718 ft 420 kts 291°
2026-05-06 14:38 47.40440 18.66430 28252 ft 416 kts 291°
2026-05-06 14:38 47.41614 18.62529 27779 ft 415 kts 291°
2026-05-06 14:38 47.42784 18.58637 27318 ft 414 kts 291°
2026-05-06 14:38 47.43946 18.54763 26837 ft 412 kts 291°
2026-05-06 14:39 47.45102 18.50907 26378 ft 410 kts 290°
2026-05-06 14:39 47.46250 18.47068 25906 ft 407 kts 290°
2026-05-06 14:39 47.47391 18.43250 25437 ft 405 kts 290°
2026-05-06 14:39 47.48525 18.39448 24974 ft 403 kts 290°
2026-05-06 14:40 47.49651 18.35668 24497 ft 401 kts 290°
2026-05-06 14:40 47.50769 18.31907 24026 ft 399 kts 290°
2026-05-06 14:40 47.51880 18.28163 23559 ft 397 kts 290°
2026-05-06 14:40 47.52960 18.24521 23051 ft 395 kts 291°
2026-05-06 14:41 47.54058 18.20813 22562 ft 392 kts 290°
2026-05-06 14:41 47.55145 18.17135 22087 ft 389 kts 290°
2026-05-06 14:41 47.56225 18.13477 21633 ft 387 kts 290°
2026-05-06 14:41 47.57253 18.09988 21186 ft 385 kts 290°
2026-05-06 14:42 47.58313 18.06385 20725 ft 382 kts 290°
2026-05-06 14:42 47.59357 18.02834 20254 ft 380 kts 290°
2026-05-06 14:42 47.60401 17.99273 19816 ft 378 kts 290°
2026-05-06 14:42 47.61447 17.95706 19357 ft 376 kts 290°
2026-05-06 14:43 47.62484 17.92161 18912 ft 374 kts 290°
2026-05-06 14:43 47.63507 17.88658 18463 ft 372 kts 290°
2026-05-06 14:43 47.64479 17.85325 18015 ft 370 kts 290°
2026-05-06 14:43 47.65511 17.81783 17525 ft 367 kts 290°
2026-05-06 14:44 47.66517 17.78329 17096 ft 363 kts 290°
2026-05-06 14:44 47.67500 17.74944 16661 ft 361 kts 290°
2026-05-06 14:44 47.68491 17.71529 16212 ft 360 kts 289°
2026-05-06 14:45 47.70429 17.64832 15346 ft 355 kts 289°
2026-05-06 14:45 47.71399 17.61476 14906 ft 353 kts 289°
2026-05-06 14:45 47.72363 17.58133 14465 ft 351 kts 289°
2026-05-06 14:45 47.73320 17.54813 14017 ft 349 kts 289°
2026-05-06 14:46 47.74165 17.51459 13671 ft 347 kts 281°
2026-05-06 14:46 47.74490 17.47868 13495 ft 355 kts 266°
2026-05-06 14:46 47.74340 17.44202 13250 ft 356 kts 262°
2026-05-06 14:46 47.74079 17.40551 13006 ft 355 kts 261°
2026-05-06 14:47 47.73805 17.36917 12776 ft 353 kts 261°
2026-05-06 14:47 47.73537 17.33300 12542 ft 351 kts 261°
2026-05-06 14:47 47.73274 17.29701 12301 ft 350 kts 261°
2026-05-06 14:47 47.73013 17.26115 12084 ft 348 kts 261°
2026-05-06 14:48 47.72754 17.22546 11834 ft 347 kts 261°
2026-05-06 14:48 47.72495 17.18987 11594 ft 346 kts 261°
2026-05-06 14:48 47.72238 17.15445 11386 ft 344 kts 261°
2026-05-06 14:48 47.71984 17.11918 11146 ft 343 kts 262°
2026-05-06 14:49 47.71985 17.08370 10917 ft 346 kts 274°
2026-05-06 14:49 47.72694 17.04969 10747 ft 344 kts 293°
2026-05-06 14:49 47.74102 17.02141 10543 ft 340 kts 310°
2026-05-06 14:49 47.75852 16.99833 10319 ft 332 kts 315°
2026-05-06 14:50 47.77614 16.97693 10085 ft 323 kts 315°
2026-05-06 14:50 47.79329 16.95618 9872 ft 313 kts 315°
2026-05-06 14:50 47.81032 16.93660 9629 ft 309 kts 322°
2026-05-06 14:50 47.82857 16.92340 9373 ft 308 kts 333°
2026-05-06 14:51 47.84773 16.91279 9120 ft 302 kts 335°
2026-05-06 14:51 47.86622 16.90040 8866 ft 295 kts 327°
2026-05-06 14:51 47.88387 16.88617 8618 ft 295 kts 326°
2026-05-06 14:51 47.90159 16.87133 8358 ft 294 kts 324°
2026-05-06 14:52 47.91877 16.85661 8096 ft 294 kts 324°
2026-05-06 14:52 47.93627 16.84145 7857 ft 294 kts 324°
2026-05-06 14:52 47.95389 16.82608 7613 ft 293 kts 324°
2026-05-06 14:52 47.97142 16.81073 7356 ft 292 kts 324°
2026-05-06 14:53 47.98894 16.79536 7113 ft 292 kts 324°
2026-05-06 14:53 48.00596 16.78039 6880 ft 291 kts 324°
2026-05-06 14:53 48.02342 16.76501 6636 ft 291 kts 323°
2026-05-06 14:53 48.04081 16.74968 6385 ft 291 kts 323°
2026-05-06 14:54 48.05801 16.73450 6160 ft 290 kts 323°
2026-05-06 14:54 48.07523 16.71929 5834 ft 289 kts 323°
2026-05-06 14:54 48.09265 16.70386 5336 ft 293 kts 324°
2026-05-06 14:54 48.11013 16.68840 5046 ft 289 kts 324°
2026-05-06 14:55 48.12654 16.67393 4986 ft 276 kts 324°
2026-05-06 14:55 48.14304 16.65940 4985 ft 261 kts 324°
2026-05-06 14:55 48.15806 16.64613 5008 ft 245 kts 323°
2026-05-06 14:55 48.17201 16.63382 4992 ft 229 kts 323°
2026-05-06 14:56 48.18479 16.62250 4981 ft 214 kts 322°
2026-05-06 14:56 48.19710 16.61156 4879 ft 203 kts 322°
2026-05-06 14:56 48.20887 16.60110 4695 ft 190 kts 322°
2026-05-06 14:56 48.21978 16.59143 4525 ft 176 kts 321°
2026-05-06 14:57 48.23007 16.58225 4221 ft 171 kts 321°
2026-05-06 14:57 48.24013 16.57320 3898 ft 169 kts 321°
2026-05-06 14:57 48.24818 16.56171 3528 ft 151 kts 280°
2026-05-06 14:57 48.24709 16.54818 3165 ft 127 kts 229°
2026-05-06 14:58 48.24104 16.53873 2977 ft 126 kts 212°
2026-05-06 14:58 48.23268 16.53569 2888 ft 134 kts 184°
2026-05-06 14:58 48.22305 16.53617 2708 ft 135 kts 176°
2026-05-06 14:58 48.21396 16.53879 2537 ft 134 kts 172°
2026-05-06 14:59 48.20495 16.54225 2373 ft 133 kts 171°
2026-05-06 14:59 48.19602 16.54586 2192 ft 132 kts 170°
2026-05-06 14:59 48.18716 16.54965 2029 ft 132 kts 170°
2026-05-06 14:59 48.17835 16.55336 1844 ft 131 kts 170°
2026-05-06 15:00 48.16956 16.55706 1677 ft 131 kts 169°
2026-05-06 15:00 48.16078 16.56078 1494 ft 131 kts 167°
2026-05-06 15:00 48.15205 16.56472 1287 ft 131 kts 165°
2026-05-06 15:00 48.14332 16.56853 1117 ft 131 kts 166°
2026-05-06 15:01 48.13450 16.57193 961 ft 132 kts 163°
2026-05-06 15:01 48.12575 16.57584 750 ft 130 kts 165°
2026-05-06 15:01 48.11721 16.57936 624 ft 122 kts 168°
2026-05-06 15:01 48.11033 16.58213 624 ft 84 kts 163°
2026-05-06 15:02 48.10561 16.58414 625 ft 59 kts 164°
2026-05-06 15:02 48.10231 16.58555 623 ft 41 kts 164°
2026-05-06 15:02 48.10010 16.58623 628 ft 26 kts 178°
2026-05-06 15:02 48.09859 16.58601 633 ft 19 kts 188°
2026-05-06 15:03 48.09736 16.58569 635 ft 17 kts 189°
2026-05-06 15:03 48.09665 16.58541 629 ft 8 kts 207°
2026-05-06 15:03 48.09638 16.58482 638 ft 7 kts 253°
2026-05-06 15:03 48.09640 16.58429 631 ft 5 kts 284°
2026-05-06 15:04 48.09661 16.58387 638 ft 5 kts 327°
2026-05-06 15:04 48.09701 16.58365 633 ft 8 kts 342°
2026-05-06 15:04 48.09764 16.58337 634 ft 11 kts 345°
2026-05-06 15:04 48.09844 16.58304 632 ft 13 kts 344°
2026-05-06 15:05 48.09938 16.58263 635 ft 16 kts 344°
2026-05-06 15:05 48.10056 16.58212 630 ft 19 kts 343°
2026-05-06 15:05 48.10183 16.58158 631 ft 20 kts 343°
2026-05-06 15:05 48.10320 16.58101 632 ft 22 kts 345°
2026-05-06 15:06 48.10466 16.58039 624 ft 22 kts 344°
2026-05-06 15:06 48.10618 16.57974 633 ft 23 kts 343°
2026-05-06 15:06 48.10759 16.57915 631 ft 24 kts 344°
2026-05-06 15:06 48.10923 16.57846 630 ft 25 kts 344°
2026-05-06 15:07 48.11037 16.57775 632 ft 16 kts 316°
2026-05-06 15:07 48.11093 16.57632 631 ft 16 kts 296°
2026-05-06 15:07 48.11143 16.57481 633 ft 17 kts 295°
2026-05-06 15:07 48.11193 16.57326 635 ft 15 kts 297°
2026-05-06 15:08 48.11273 16.57287 626 ft 12 kts 341°
2026-05-06 15:08 48.11326 16.57196 632 ft 13 kts 298°
2026-05-06 15:08 48.11367 16.57076 634 ft 13 kts 295°
2026-05-06 15:08 48.11428 16.57004 622 ft 12 kts 359°
2026-05-06 15:09 48.11471 16.57021 621 ft 0 kts 22°